Regional Weather Roundup
Issued by NWS

Home | Current Version | Previous Version | Graphics & Text | Print | Product List | Glossary On
Versions: 1 2 3 4 5 6 7 8 9 10 11 12 13 14 15 16 17 18 19 20 21 22 23 24 25 26 27 28 29 30 31 32 33 34 35 36 37 38 39 40 41 42 43 44 45 46 47 48 49 50
709
ASUS43 KLSX 231307
RWRMO

WEATHER SUMMARY FOR MISSOURI
NATIONAL WEATHER SERVICE SPRINGFIELD MO
800 AM CDT MON OCT 23 2017

NOTE: "FAIR" INDICATES FEW OR NO CLOUDS BELOW 12,000 FEET WITH NO
       SIGNIFICANT WEATHER AND/OR OBSTRUCTIONS TO VISIBILITY.
       CURRENT SKY AND/OR WEATHER CONDITIONS ARE NOT AVAILABLE FOR
       CHILLICOTHE AND FARMINGTON.

MOZ001>031-035>038-043-044-053-054-231400-
...NORTHERN AND WESTERN MISSOURI...

CITY           SKY/WX    TMP DP  RH WIND       PRES   REMARKS
KANSAS CTY INT PTCLDY    45  40  82 S9        29.91S
KANSAS C DTWN  CLEAR     48  40  73 S5        29.92F
LEE`S SUMMIT   CLEAR     49  40  71 SW10      29.93S
ST JOSEPH      CLEAR     39  38  96 CALM      29.92R
CHILLICOTHE      N/A     45  40  82 SW3       29.92F
KIRKSVILLE     CLOUDY    46  43  89 SW7       29.94F

$$
MOZ066>068-077>081-088>096-101>105-231400-
...SOUTHWEST MISSOURI...

CITY           SKY/WX    TMP DP  RH WIND       PRES   REMARKS
SPRINGFIELD    CLEAR     44  40  85 S7        29.99F
JOPLIN         CLEAR     46  44  93 S3        30.00S
BRANSON        PTCLDY    45  39  81 CALM      30.02F

$$
MOZ032>034-039>042-045>050-055>058-069>072-231400-
...CENTRAL MISSOURI...

CITY           SKY/WX    TMP DP  RH WIND       PRES   REMARKS
COLUMBIA       PTCLDY    47  43  86 W5        29.95F
JEFFERSON CITY PTCLDY    49  44  83 CALM      29.96S
ROLLA          CLOUDY    50  46  86 W9        29.97S
SEDALIA        CLEAR     43  43 100 S8        29.98R
WHITEMAN AFB   PTCLDY    42  39  90 S8        29.91S
WARRENSBURG    CLEAR     41  39  93 S5        29.95S
OSAGE BEACH    CLEAR     46  44  93 CALM      29.98F

$$
MOZ051-052-059>065-231400-
...EAST CENTRAL MISSOURI...

CITY           SKY/WX    TMP DP  RH WIND       PRES   REMARKS
ST LOUIS INTL  CLOUDY    52  49  89 NW10      29.90F
SPIRIT OF STL  LGT RAIN  52  49  89 W10       29.91F
ST CHARLES     CLOUDY    53  47  79 NW10      29.89F

$$
MOZ072>076-082>087-097>100-106>115-231400-
...SOUTH CENTRAL AND SOUTHEAST MISSOURI...

CITY           SKY/WX    TMP DP  RH WIND       PRES   REMARKS
CAPE GIRARDEAU CLOUDY    53  48  83 NW9       29.90R
FARMINGTON     MOCLDY    50  44  80 NW6       29.92S
POPLAR BLUFF   CLOUDY    52  49  89 W6        29.94R
WEST PLAINS    CLOUDY    51  44  77 W6        29.99R

$$



USA.gov is the U.S. government's official web portal to all federal, state and local government web resources and services.